Time,TemperatureF,DewpointF,PressureIn,WindDirection,WindDirectionDegrees,WindSpeedMPH,WindSpeedGustMPH,Humidity,HourlyPrecipIn,Conditions,Clouds,dailyrainin,SoftwareType,DateUTC
2013-04-17 00:00:00,65.3,56.8,30.15,West,276,4.0,6.0,74,0.00,,,0.00,Wunderground v.1.15,2013-04-17 04:00:00,
2013-04-17 00:05:00,65.1,57.3,30.15,WNW,290,5.0,6.0,76,0.00,,,0.00,Wunderground v.1.15,2013-04-17 04:05:00,
2013-04-17 00:10:00,65.0,57.6,30.15,West,281,7.0,7.0,77,0.62,,,0.02,Wunderground v.1.15,2013-04-17 04:10:00,
2013-04-17 00:15:00,64.2,58.6,30.15,WNW,288,6.0,7.0,82,0.24,,,0.05,Wunderground v.1.15,2013-04-17 04:15:00,
2013-04-17 00:20:00,63.5,58.6,30.16,NW,306,5.0,5.0,84,0.33,,,0.07,Wunderground v.1.15,2013-04-17 04:20:00,
2013-04-17 00:25:00,62.9,58.6,30.15,NW,313,4.0,5.0,86,0.12,,,0.08,Wunderground v.1.15,2013-04-17 04:25:00,
2013-04-17 00:35:00,62.2,59.2,30.15,NW,313,1.0,3.0,90,0.19,,,0.10,Wunderground v.1.15,2013-04-17 04:35:00,
2013-04-17 00:40:00,62.1,59.4,30.16,NW,313,1.0,4.0,91,0.24,,,0.11,Wunderground v.1.15,2013-04-17 04:40:00,
2013-04-17 00:50:00,61.9,59.9,30.15,NW,313,2.0,2.0,93,0.16,,,0.15,Wunderground v.1.15,2013-04-17 04:50:00,
2013-04-17 00:55:00,61.6,59.6,30.15,NW,313,1.0,2.0,93,0.14,,,0.16,Wunderground v.1.15,2013-04-17 04:55:00,
2013-04-17 01:00:00,61.4,59.7,30.15,NW,313,1.0,1.0,94,0.09,,,0.16,Wunderground v.1.15,2013-04-17 05:00:00,
2013-04-17 01:10:00,61.1,59.4,30.14,NW,313,0.0,2.0,94,0.05,,,0.17,Wunderground v.1.15,2013-04-17 05:10:00,
2013-04-17 01:15:00,61.1,59.7,30.14,NW,313,1.0,1.0,95,0.09,,,0.18,Wunderground v.1.15,2013-04-17 05:15:00,
2013-04-17 01:25:00,61.1,59.7,30.14,SSE,156,2.0,4.0,95,0.10,,,0.20,Wunderground v.1.15,2013-04-17 05:25:00,
2013-04-17 01:30:00,61.0,59.9,30.14,SSE,156,3.0,5.0,96,0.08,,,0.20,Wunderground v.1.15,2013-04-17 05:30:00,
2013-04-17 01:40:00,60.8,59.7,30.12,SSE,156,2.0,2.0,96,0.04,,,0.21,Wunderground v.1.15,2013-04-17 05:40:00,
2013-04-17 01:50:00,60.8,59.7,30.13,SSE,156,2.0,2.0,96,0.04,,,0.21,Wunderground v.1.15,2013-04-17 05:50:00,
2013-04-17 01:55:00,60.6,59.5,30.13,SSE,156,1.0,1.0,96,0.04,,,0.21,Wunderground v.1.15,2013-04-17 05:55:00,
2013-04-17 02:00:00,60.8,59.7,30.12,SSE,156,0.0,0.0,96,0.00,,,0.21,Wunderground v.1.15,2013-04-17 06:00:00,
2013-04-17 02:10:00,60.6,59.5,30.12,SSE,156,0.0,1.0,96,0.00,,,0.21,Wunderground v.1.15,2013-04-17 06:10:00,
2013-04-17 02:15:00,60.6,59.5,30.11,SSE,156,1.0,1.0,96,0.00,,,0.21,Wunderground v.1.15,2013-04-17 06:15:00,
2013-04-17 02:20:00,60.6,59.5,30.12,SSE,156,1.0,1.0,96,0.00,,,0.21,Wunderground v.1.15,2013-04-17 06:20:00,
2013-04-17 02:30:00,60.5,59.6,30.11,SSE,156,1.0,1.0,97,0.00,,,0.21,Wunderground v.1.15,2013-04-17 06:30:00,
2013-04-17 02:35:00,60.3,59.4,30.11,SSE,156,1.0,1.0,97,0.00,,,0.21,Wunderground v.1.15,2013-04-17 06:35:00,
2013-04-17 02:45:00,60.3,59.4,30.10,South,179,1.0,3.0,97,0.00,,,0.21,Wunderground v.1.15,2013-04-17 06:45:00,
2013-04-17 02:50:00,60.3,59.4,30.11,West,261,2.0,2.0,97,0.00,,,0.21,Wunderground v.1.15,2013-04-17 06:50:00,
2013-04-17 03:00:00,60.3,59.7,30.11,West,261,2.0,4.0,98,0.00,,,0.21,Wunderground v.1.15,2013-04-17 07:00:00,
2013-04-17 03:10:00,60.2,59.6,30.11,West,261,2.0,3.0,98,0.00,,,0.21,Wunderground v.1.15,2013-04-17 07:10:00,
2013-04-17 03:15:00,60.2,59.6,30.10,West,261,2.0,3.0,98,0.00,,,0.21,Wunderground v.1.15,2013-04-17 07:15:00,
2013-04-17 03:25:00,60.0,59.4,30.10,West,261,2.0,3.0,98,0.00,,,0.21,Wunderground v.1.15,2013-04-17 07:25:00,
2013-04-17 03:35:00,59.9,59.3,30.10,West,261,1.0,1.0,98,0.00,,,0.21,Wunderground v.1.15,2013-04-17 07:35:00,
2013-04-17 03:40:00,59.9,59.3,30.10,West,261,1.0,1.0,98,0.00,,,0.21,Wunderground v.1.15,2013-04-17 07:40:00,
2013-04-17 03:45:00,59.7,59.1,30.10,West,261,0.0,1.0,98,0.00,,,0.21,Wunderground v.1.15,2013-04-17 07:45:00,
2013-04-17 03:55:00,59.4,58.8,30.10,West,261,0.0,0.0,98,0.00,,,0.21,Wunderground v.1.15,2013-04-17 07:55:00,
2013-04-17 04:00:00,59.4,58.8,30.10,West,261,1.0,1.0,98,0.00,,,0.21,Wunderground v.1.15,2013-04-17 08:00:00,
2013-04-17 04:10:00,59.2,58.6,30.11,West,261,0.0,0.0,98,0.00,,,0.21,Wunderground v.1.15,2013-04-17 08:10:00,
2013-04-17 04:15:00,59.1,58.5,30.10,West,261,0.0,0.0,98,0.00,,,0.21,Wunderground v.1.15,2013-04-17 08:15:00,
2013-04-17 04:25:00,58.8,58.2,30.11,West,261,1.0,1.0,98,0.00,,,0.21,Wunderground v.1.15,2013-04-17 08:25:00,
2013-04-17 04:30:00,58.6,58.0,30.12,West,261,1.0,1.0,98,0.00,,,0.21,Wunderground v.1.15,2013-04-17 08:30:00,
2013-04-17 04:40:00,58.5,57.9,30.11,West,261,0.0,0.0,98,0.00,,,0.21,Wunderground v.1.15,2013-04-17 08:40:00,
2013-04-17 04:45:00,58.5,57.9,30.12,West,261,1.0,2.0,98,0.00,,,0.21,Wunderground v.1.15,2013-04-17 08:45:00,
2013-04-17 04:50:00,58.3,57.7,30.12,West,261,1.0,2.0,98,0.00,,,0.21,Wunderground v.1.15,2013-04-17 08:50:00,
2013-04-17 05:00:00,58.5,57.9,30.12,West,261,2.0,2.0,98,0.00,,,0.21,Wunderground v.1.15,2013-04-17 09:00:00,
2013-04-17 05:05:00,58.3,57.7,30.12,West,261,1.0,2.0,98,0.00,,,0.21,Wunderground v.1.15,2013-04-17 09:05:00,
2013-04-17 05:15:00,58.2,57.6,30.13,West,261,0.0,1.0,98,0.00,,,0.21,Wunderground v.1.15,2013-04-17 09:15:00,
2013-04-17 05:20:00,58.0,57.4,30.13,West,261,0.0,1.0,98,0.00,,,0.21,Wunderground v.1.15,2013-04-17 09:20:00,
2013-04-17 05:30:00,57.9,57.3,30.13,West,261,1.0,1.0,98,0.00,,,0.21,Wunderground v.1.15,2013-04-17 09:30:00,
2013-04-17 05:35:00,57.9,57.6,30.13,West,261,1.0,1.0,99,0.00,,,0.21,Wunderground v.1.15,2013-04-17 09:35:00,
2013-04-17 05:45:00,57.7,57.4,30.14,West,261,0.0,0.0,99,0.00,,,0.21,Wunderground v.1.15,2013-04-17 09:45:00,
2013-04-17 05:55:00,57.3,57.0,30.14,West,261,0.0,0.0,99,0.00,,,0.21,Wunderground v.1.15,2013-04-17 09:55:00,
2013-04-17 06:00:00,57.1,56.8,30.14,West,261,0.0,1.0,99,0.00,,,0.21,Wunderground v.1.15,2013-04-17 10:00:00,
2013-04-17 06:10:00,57.0,56.7,30.15,West,261,0.0,0.0,99,0.00,,,0.21,Wunderground v.1.15,2013-04-17 10:10:00,
2013-04-17 06:15:00,57.0,56.7,30.15,West,261,0.0,0.0,99,0.00,,,0.21,Wunderground v.1.15,2013-04-17 10:15:00,
2013-04-17 06:25:00,57.1,56.8,30.15,West,261,1.0,2.0,99,0.00,,,0.21,Wunderground v.1.15,2013-04-17 10:25:00,
2013-04-17 06:30:00,57.1,56.8,30.15,West,261,0.0,0.0,99,0.00,,,0.21,Wunderground v.1.15,2013-04-17 10:30:00,
2013-04-17 06:40:00,57.3,57.0,30.16,West,261,0.0,1.0,99,0.00,,,0.21,Wunderground v.1.15,2013-04-17 10:40:00,
2013-04-17 06:50:00,57.4,57.1,30.15,West,261,1.0,1.0,99,0.00,,,0.21,Wunderground v.1.15,2013-04-17 10:50:00,
2013-04-17 06:55:00,57.4,57.1,30.16,West,261,1.0,1.0,99,0.00,,,0.21,Wunderground v.1.15,2013-04-17 10:55:00,
2013-04-17 07:00:00,57.3,57.0,30.16,West,261,1.0,1.0,99,0.00,,,0.21,Wunderground v.1.15,2013-04-17 11:00:00,
2013-04-17 07:10:00,57.6,57.3,30.16,West,261,1.0,2.0,99,0.00,,,0.21,Wunderground v.1.15,2013-04-17 11:10:00,
2013-04-17 07:20:00,57.9,57.6,30.16,West,261,1.0,1.0,99,0.00,,,0.21,Wunderground v.1.15,2013-04-17 11:20:00,
2013-04-17 07:25:00,58.2,57.9,30.16,West,261,1.0,1.0,99,0.00,,,0.21,Wunderground v.1.15,2013-04-17 11:25:00,
2013-04-17 07:35:00,58.5,58.2,30.17,West,261,1.0,2.0,99,0.00,,,0.21,Wunderground v.1.15,2013-04-17 11:35:00,
2013-04-17 07:40:00,58.5,58.2,30.17,West,261,1.0,2.0,99,0.00,,,0.21,Wunderground v.1.15,2013-04-17 11:40:00,
2013-04-17 07:45:00,58.6,58.3,30.17,West,261,1.0,2.0,99,0.00,,,0.21,Wunderground v.1.15,2013-04-17 11:45:00,
2013-04-17 07:55:00,58.9,58.6,30.17,West,261,0.0,2.0,99,0.00,,,0.21,Wunderground v.1.15,2013-04-17 11:55:00,
2013-04-17 08:00:00,59.1,58.8,30.17,West,261,1.0,2.0,99,0.00,,,0.21,Wunderground v.1.15,2013-04-17 12:00:00,
2013-04-17 08:05:00,59.4,59.1,30.17,West,261,1.0,2.0,99,0.00,,,0.21,Wunderground v.1.15,2013-04-17 12:05:00,
2013-04-17 08:15:00,59.7,59.4,30.18,West,261,1.0,3.0,99,0.00,,,0.21,Wunderground v.1.15,2013-04-17 12:15:00,
2013-04-17 08:25:00,59.7,59.4,30.17,West,261,3.0,3.0,99,0.00,,,0.21,Wunderground v.1.15,2013-04-17 12:25:00,
2013-04-17 08:30:00,59.9,59.6,30.18,West,261,2.0,2.0,99,0.00,,,0.21,Wunderground v.1.15,2013-04-17 12:30:00,
2013-04-17 08:40:00,59.9,59.6,30.18,West,261,1.0,2.0,99,0.00,,,0.21,Wunderground v.1.15,2013-04-17 12:40:00,
2013-04-17 08:50:00,59.9,59.6,30.18,West,261,2.0,3.0,99,0.00,,,0.21,Wunderground v.1.15,2013-04-17 12:50:00,
2013-04-17 08:55:00,60.0,59.7,30.18,NNW,340,3.0,5.0,99,0.00,,,0.21,Wunderground v.1.15,2013-04-17 12:55:00,
2013-04-17 09:05:00,59.7,59.4,30.18,NNE,13,6.0,7.0,99,0.00,,,0.21,Wunderground v.1.15,2013-04-17 13:05:00,
2013-04-17 09:10:00,59.5,59.2,30.18,NNE,22,5.0,5.0,99,0.00,,,0.21,Wunderground v.1.15,2013-04-17 13:10:00,
2013-04-17 09:20:00,60.2,59.9,30.18,NNW,341,3.0,3.0,99,0.00,,,0.21,Wunderground v.1.15,2013-04-17 13:20:00,
2013-04-17 09:25:00,60.2,59.9,30.18,NNW,341,3.0,5.0,99,0.00,,,0.21,Wunderground v.1.15,2013-04-17 13:25:00,
2013-04-17 09:30:00,60.2,59.9,30.18,North,355,4.0,9.0,99,0.00,,,0.21,Wunderground v.1.15,2013-04-17 13:30:00,
2013-04-17 09:40:00,60.8,60.5,30.18,NNE,25,5.0,6.0,99,0.00,,,0.21,Wunderground v.1.15,2013-04-17 13:40:00,
2013-04-17 09:45:00,61.1,60.8,30.18,NE,40,4.0,6.0,99,0.00,,,0.21,Wunderground v.1.15,2013-04-17 13:45:00,
2013-04-17 09:50:00,61.3,61.0,30.18,NE,38,4.0,4.0,99,0.00,,,0.21,Wunderground v.1.15,2013-04-17 13:50:00,
2013-04-17 10:00:00,61.4,61.1,30.19,NNE,32,4.0,4.0,99,0.00,,,0.21,Wunderground v.1.15,2013-04-17 14:00:00,
2013-04-17 10:10:00,62.1,61.8,30.18,NE,46,3.0,4.0,99,0.00,,,0.21,Wunderground v.1.15,2013-04-17 14:10:00,
2013-04-17 10:20:00,61.6,61.3,30.19,NNE,15,4.0,5.0,99,0.00,,,0.21,Wunderground v.1.15,2013-04-17 14:20:00,
2013-04-17 10:30:00,62.9,61.7,30.19,North,355,4.0,5.0,96,0.00,,,0.21,Wunderground v.1.15,2013-04-17 14:30:00,
2013-04-17 10:35:00,63.2,60.8,30.19,North,355,3.0,3.0,92,0.00,,,0.21,Wunderground v.1.15,2013-04-17 14:35:00,
2013-04-17 10:45:00,63.3,60.0,30.19,North,360,5.0,6.0,89,0.00,,,0.21,Wunderground v.1.15,2013-04-17 14:45:00,
2013-04-17 10:55:00,64.2,58.6,30.19,North,355,4.0,7.0,82,0.00,,,0.21,Wunderground v.1.15,2013-04-17 14:55:00,
2013-04-17 11:00:00,64.3,58.7,30.20,NE,52,4.0,8.0,82,0.00,,,0.21,Wunderground v.1.15,2013-04-17 15:00:00,
2013-04-17 11:05:00,64.2,57.9,30.19,North,360,6.0,8.0,80,0.00,,,0.21,Wunderground v.1.15,2013-04-17 15:05:00,
2013-04-17 11:10:00,64.0,58.4,30.20,NW,321,8.0,9.0,82,0.00,,,0.21,Wunderground v.1.15,2013-04-17 15:10:00,
2013-04-17 11:20:00,63.0,57.4,30.20,NNW,330,9.0,9.0,82,0.00,,,0.21,Wunderground v.1.15,2013-04-17 15:20:00,
2013-04-17 11:25:00,61.9,56.0,30.20,NNE,14,9.0,15.0,81,0.00,,,0.21,Wunderground v.1.15,2013-04-17 15:25:00,
2013-04-17 11:35:00,60.5,54.6,30.20,NNE,13,10.0,10.0,81,0.00,,,0.21,Wunderground v.1.15,2013-04-17 15:35:00,
2013-04-17 11:40:00,60.2,54.0,30.21,North,9,10.0,13.0,80,0.00,,,0.21,Wunderground v.1.15,2013-04-17 15:40:00,
2013-04-17 11:45:00,60.2,54.3,30.21,North,350,10.0,10.0,81,0.00,,,0.21,Wunderground v.1.15,2013-04-17 15:45:00,
2013-04-17 11:55:00,60.0,54.2,30.21,NNE,12,11.0,11.0,81,0.00,,,0.21,Wunderground v.1.15,2013-04-17 15:55:00,
2013-04-17 12:00:00,60.2,54.3,30.21,NNW,342,10.0,10.0,81,0.00,,,0.21,Wunderground v.1.15,2013-04-17 16:00:00,
2013-04-17 12:10:00,60.0,53.8,30.21,North,5,8.0,8.0,80,0.00,,,0.21,Wunderground v.1.15,2013-04-17 16:10:00,
2013-04-17 12:20:00,60.0,53.8,30.21,NNE,15,8.0,11.0,80,0.00,,,0.21,Wunderground v.1.15,2013-04-17 16:20:00,
2013-04-17 12:25:00,59.9,54.1,30.21,NE,40,10.0,10.0,81,0.00,,,0.21,Wunderground v.1.15,2013-04-17 16:25:00,
2013-04-17 12:35:00,59.9,54.1,30.21,NNW,327,8.0,8.0,81,0.00,,,0.21,Wunderground v.1.15,2013-04-17 16:35:00,
2013-04-17 12:45:00,60.2,54.0,30.21,NNE,18,9.0,13.0,80,0.00,,,0.21,Wunderground v.1.15,2013-04-17 16:45:00,
2013-04-17 12:50:00,60.5,54.3,30.21,NNW,346,9.0,13.0,80,0.00,,,0.21,Wunderground v.1.15,2013-04-17 16:50:00,
2013-04-17 13:00:00,61.3,55.1,30.20,North,355,8.0,8.0,80,0.00,,,0.21,Wunderground v.1.15,2013-04-17 17:00:00,
2013-04-17 13:05:00,62.4,55.4,30.20,NNE,23,7.0,8.0,78,0.00,,,0.21,Wunderground v.1.15,2013-04-17 17:05:00,
2013-04-17 13:15:00,63.5,55.8,30.20,ENE,74,7.0,10.0,76,0.00,,,0.21,Wunderground v.1.15,2013-04-17 17:15:00,
2013-04-17 13:20:00,63.7,55.3,30.20,ENE,74,6.0,6.0,74,0.00,,,0.21,Wunderground v.1.15,2013-04-17 17:20:00,
2013-04-17 13:30:00,63.0,54.6,30.20,ENE,59,7.0,7.0,74,0.00,,,0.21,Wunderground v.1.15,2013-04-17 17:30:00,
2013-04-17 13:35:00,62.9,55.6,30.20,NE,49,7.0,7.0,77,0.00,,,0.21,Wunderground v.1.15,2013-04-17 17:35:00,
2013-04-17 13:40:00,62.7,54.7,30.20,NNE,32,5.0,5.0,75,0.00,,,0.21,Wunderground v.1.15,2013-04-17 17:40:00,
2013-04-17 13:50:00,63.2,55.5,30.20,NNW,333,5.0,7.0,76,0.00,,,0.21,Wunderground v.1.15,2013-04-17 17:50:00,
2013-04-17 13:55:00,63.3,55.6,30.20,North,351,6.0,7.0,76,0.00,,,0.21,Wunderground v.1.15,2013-04-17 17:55:00,
2013-04-17 14:05:00,64.0,55.2,30.19,NNE,30,7.0,7.0,73,0.00,,,0.21,Wunderground v.1.15,2013-04-17 18:05:00,
2013-04-17 14:15:00,63.2,54.8,30.19,NNE,27,7.0,12.0,74,0.00,,,0.21,Wunderground v.1.15,2013-04-17 18:15:00,
2013-04-17 14:20:00,63.2,54.8,30.19,NNE,20,7.0,7.0,74,0.00,,,0.21,Wunderground v.1.15,2013-04-17 18:20:00,
2013-04-17 14:30:00,63.3,55.2,30.19,East,80,6.0,9.0,75,0.00,,,0.21,Wunderground v.1.15,2013-04-17 18:30:00,
2013-04-17 14:40:00,63.7,55.3,30.19,East,91,5.0,9.0,74,0.00,,,0.21,Wunderground v.1.15,2013-04-17 18:40:00,
2013-04-17 14:45:00,63.5,54.7,30.19,East,80,5.0,5.0,73,0.00,,,0.21,Wunderground v.1.15,2013-04-17 18:45:00,
2013-04-17 14:55:00,63.7,54.9,30.19,NNE,26,6.0,6.0,73,0.00,,,0.21,Wunderground v.1.15,2013-04-17 18:55:00,
2013-04-17 15:00:00,63.7,54.9,30.19,NNE,29,7.0,7.0,73,0.00,,,0.21,Wunderground v.1.15,2013-04-17 19:00:00,
2013-04-17 15:10:00,64.2,55.0,30.18,NNE,17,6.0,8.0,72,0.00,,,0.21,Wunderground v.1.15,2013-04-17 19:10:00,
2013-04-17 15:20:00,64.8,55.6,30.18,NNE,17,5.0,6.0,72,0.00,,,0.21,Wunderground v.1.15,2013-04-17 19:20:00,
2013-04-17 15:30:00,65.6,55.5,30.18,NNE,27,5.0,5.0,70,0.00,,,0.21,Wunderground v.1.15,2013-04-17 19:30:00,
2013-04-17 15:35:00,66.1,55.2,30.17,NE,43,6.0,6.0,68,0.00,,,0.21,Wunderground v.1.15,2013-04-17 19:35:00,
2013-04-17 15:45:00,66.4,55.5,30.17,ENE,72,5.0,8.0,68,0.00,,,0.21,Wunderground v.1.15,2013-04-17 19:45:00,
2013-04-17 15:55:00,67.3,56.0,30.17,NNW,346,5.0,7.0,67,0.00,,,0.21,Wunderground v.1.15,2013-04-17 19:55:00,
2013-04-17 16:05:00,67.4,55.6,30.17,NNE,29,7.0,9.0,66,0.00,,,0.21,Wunderground v.1.15,2013-04-17 20:05:00,
2013-04-17 16:15:00,67.6,55.0,30.17,North,11,7.0,7.0,64,0.00,,,0.21,Wunderground v.1.15,2013-04-17 20:15:00,
2013-04-17 16:25:00,68.1,55.5,30.17,North,5,6.0,13.0,64,0.00,,,0.21,Wunderground v.1.15,2013-04-17 20:25:00,
2013-04-17 16:30:00,68.1,54.6,30.17,ENE,73,6.0,6.0,62,0.00,,,0.21,Wunderground v.1.15,2013-04-17 20:30:00,
2013-04-17 16:40:00,67.4,53.9,30.17,North,5,7.0,7.0,62,0.00,,,0.21,Wunderground v.1.15,2013-04-17 20:40:00,
2013-04-17 16:45:00,67.4,54.4,30.17,NNE,20,6.0,7.0,63,0.00,,,0.21,Wunderground v.1.15,2013-04-17 20:45:00,
2013-04-17 16:55:00,67.3,54.3,30.17,NE,55,4.0,5.0,63,0.00,,,0.21,Wunderground v.1.15,2013-04-17 20:55:00,
2013-04-17 17:00:00,67.3,54.3,30.17,ENE,74,4.0,6.0,63,0.00,,,0.21,Wunderground v.1.15,2013-04-17 21:00:00,
2013-04-17 17:10:00,67.3,54.7,30.16,NNW,348,5.0,7.0,64,0.00,,,0.21,Wunderground v.1.15,2013-04-17 21:10:00,
2013-04-17 17:20:00,67.3,54.3,30.16,NNE,32,6.0,6.0,63,0.00,,,0.21,Wunderground v.1.15,2013-04-17 21:20:00,
2013-04-17 17:30:00,67.1,54.1,30.16,NNE,30,6.0,7.0,63,0.00,,,0.21,Wunderground v.1.15,2013-04-17 21:30:00,
2013-04-17 17:35:00,67.1,54.1,30.16,NNE,28,5.0,5.0,63,0.00,,,0.21,Wunderground v.1.15,2013-04-17 21:35:00,
2013-04-17 17:45:00,67.1,54.1,30.16,NNE,32,4.0,5.0,63,0.00,,,0.21,Wunderground v.1.15,2013-04-17 21:45:00,
2013-04-17 17:55:00,66.9,53.9,30.16,NNE,29,5.0,6.0,63,0.00,,,0.21,Wunderground v.1.15,2013-04-17 21:55:00,
2013-04-17 18:00:00,67.1,54.5,30.16,North,11,5.0,5.0,64,0.00,,,0.21,Wunderground v.1.15,2013-04-17 22:00:00,
2013-04-17 18:10:00,66.9,53.9,30.16,NNE,30,4.0,5.0,63,0.00,,,0.21,Wunderground v.1.15,2013-04-17 22:10:00,
2013-04-17 18:15:00,66.8,54.2,30.16,NNE,13,5.0,5.0,64,0.00,,,0.21,Wunderground v.1.15,2013-04-17 22:15:00,
2013-04-17 18:25:00,66.8,53.8,30.16,East,82,4.0,4.0,63,0.00,,,0.21,Wunderground v.1.15,2013-04-17 22:25:00,
2013-04-17 18:35:00,66.8,52.9,30.16,NE,54,4.0,4.0,61,0.00,,,0.21,Wunderground v.1.15,2013-04-17 22:35:00,
2013-04-17 18:40:00,66.9,52.6,30.16,ENE,58,4.0,4.0,60,0.00,,,0.21,Wunderground v.1.15,2013-04-17 22:40:00,
2013-04-17 18:45:00,67.1,53.2,30.16,ENE,61,4.0,4.0,61,0.00,,,0.21,Wunderground v.1.15,2013-04-17 22:45:00,
2013-04-17 18:55:00,66.9,52.6,30.17,ENE,61,3.0,5.0,60,0.00,,,0.21,Wunderground v.1.15,2013-04-17 22:55:00,
2013-04-17 19:05:00,66.6,51.8,30.17,East,80,4.0,4.0,59,0.00,,,0.21,Wunderground v.1.15,2013-04-17 23:05:00,
2013-04-17 19:10:00,66.4,51.6,30.17,ENE,75,4.0,4.0,59,0.00,,,0.21,Wunderground v.1.15,2013-04-17 23:10:00,
2013-04-17 19:20:00,66.4,51.6,30.17,East,84,4.0,4.0,59,0.00,,,0.21,Wunderground v.1.15,2013-04-17 23:20:00,
2013-04-17 19:30:00,66.3,52.0,30.18,East,84,2.0,4.0,60,0.00,,,0.21,Wunderground v.1.15,2013-04-17 23:30:00,
2013-04-17 19:35:00,66.1,52.3,30.18,East,84,3.0,5.0,61,0.00,,,0.21,Wunderground v.1.15,2013-04-17 23:35:00,
2013-04-17 19:45:00,65.9,52.1,30.18,East,84,3.0,4.0,61,0.00,,,0.21,Wunderground v.1.15,2013-04-17 23:45:00,
2013-04-17 19:55:00,65.6,52.2,30.18,East,84,3.0,3.0,62,0.00,,,0.21,Wunderground v.1.15,2013-04-17 23:55:00,
2013-04-17 20:00:00,65.4,52.0,30.17,East,84,3.0,6.0,62,0.00,,,0.21,Wunderground v.1.15,2013-04-18 00:00:00,
2013-04-17 20:05:00,65.4,52.0,30.17,East,87,4.0,7.0,62,0.00,,,0.21,Wunderground v.1.15,2013-04-18 00:05:00,
2013-04-17 20:15:00,65.1,51.8,30.18,East,95,5.0,5.0,62,0.00,,,0.21,Wunderground v.1.15,2013-04-18 00:15:00,
2013-04-17 20:25:00,65.0,51.7,30.18,East,95,6.0,7.0,62,0.00,,,0.21,Wunderground v.1.15,2013-04-18 00:25:00,
2013-04-17 20:35:00,64.6,51.3,30.18,East,81,6.0,7.0,62,0.00,,,0.21,Wunderground v.1.15,2013-04-18 00:35:00,
2013-04-17 20:45:00,64.5,51.2,30.18,East,87,4.0,6.0,62,0.00,,,0.21,Wunderground v.1.15,2013-04-18 00:45:00,
2013-04-17 20:55:00,64.5,50.7,30.18,East,88,3.0,3.0,61,0.00,,,0.21,Wunderground v.1.15,2013-04-18 00:55:00,
2013-04-17 21:05:00,64.3,50.1,30.18,East,82,4.0,4.0,60,0.00,,,0.21,Wunderground v.1.15,2013-04-18 01:05:00,
2013-04-17 21:10:00,64.3,50.1,30.18,East,82,3.0,3.0,60,0.00,,,0.21,Wunderground v.1.15,2013-04-18 01:10:00,
2013-04-17 21:20:00,64.2,49.1,30.18,East,82,3.0,3.0,58,0.00,,,0.21,Wunderground v.1.15,2013-04-18 01:20:00,
2013-04-17 21:25:00,64.2,48.6,30.18,East,82,3.0,3.0,57,0.00,,,0.21,Wunderground v.1.15,2013-04-18 01:25:00,
2013-04-17 21:30:00,64.0,48.5,30.18,East,82,3.0,3.0,57,0.00,,,0.21,Wunderground v.1.15,2013-04-18 01:30:00,
2013-04-17 21:40:00,64.0,48.9,30.19,East,82,3.0,3.0,58,0.00,,,0.21,Wunderground v.1.15,2013-04-18 01:40:00,
2013-04-17 21:50:00,64.0,48.9,30.19,East,82,2.0,2.0,58,0.00,,,0.21,Wunderground v.1.15,2013-04-18 01:50:00,
2013-04-17 21:55:00,63.8,48.7,30.19,East,82,2.0,2.0,58,0.00,,,0.21,Wunderground v.1.15,2013-04-18 01:55:00,
2013-04-17 22:05:00,63.8,49.2,30.20,East,82,1.0,1.0,59,0.00,,,0.21,Wunderground v.1.15,2013-04-18 02:05:00,
2013-04-17 22:15:00,63.8,49.2,30.20,East,82,1.0,2.0,59,0.00,,,0.21,Wunderground v.1.15,2013-04-18 02:15:00,
2013-04-17 22:25:00,63.7,49.5,30.20,East,82,1.0,2.0,60,0.00,,,0.21,Wunderground v.1.15,2013-04-18 02:25:00,
2013-04-17 22:30:00,63.7,49.5,30.20,East,82,1.0,2.0,60,0.00,,,0.21,Wunderground v.1.15,2013-04-18 02:30:00,
2013-04-17 22:40:00,63.5,49.8,30.19,East,82,1.0,2.0,61,0.00,,,0.21,Wunderground v.1.15,2013-04-18 02:40:00,
2013-04-17 22:45:00,63.5,49.8,30.20,East,82,1.0,1.0,61,0.00,,,0.21,Wunderground v.1.15,2013-04-18 02:45:00,
2013-04-17 22:50:00,63.5,49.8,30.20,East,82,0.0,1.0,61,0.00,,,0.21,Wunderground v.1.15,2013-04-18 02:50:00,
2013-04-17 23:00:00,63.5,49.8,30.20,East,82,1.0,2.0,61,0.00,,,0.21,Wunderground v.1.15,2013-04-18 03:00:00,
2013-04-17 23:10:00,63.5,50.2,30.20,East,82,1.0,1.0,62,0.00,,,0.21,Wunderground v.1.15,2013-04-18 03:10:00,
2013-04-17 23:15:00,63.5,50.2,30.20,East,82,0.0,1.0,62,0.00,,,0.21,Wunderground v.1.15,2013-04-18 03:15:00,
2013-04-17 23:20:00,63.3,50.5,30.19,East,82,1.0,1.0,63,0.00,,,0.21,Wunderground v.1.15,2013-04-18 03:20:00,
2013-04-17 23:30:00,63.3,50.5,30.19,East,82,1.0,2.0,63,0.00,,,0.21,Wunderground v.1.15,2013-04-18 03:30:00,
2013-04-17 23:35:00,63.3,50.9,30.19,East,89,3.0,5.0,64,0.00,,,0.21,Wunderground v.1.15,2013-04-18 03:35:00,
2013-04-17 23:45:00,63.3,51.3,30.19,East,93,3.0,5.0,65,0.00,,,0.21,Wunderground v.1.15,2013-04-18 03:45:00,
2013-04-17 23:55:00,63.5,51.5,30.20,East,93,1.0,2.0,65,0.00,,,0.21,Wunderground v.1.15,2013-04-18 03:55:00,